EW2109 Weather Reports


Display with metric or nautical units.
time (UTC)temp
F
wind
direction
speed
MPH
gust
MPH
rain 1hr
in
rain 24hr
in
rain mn
in
humidity
%
barometer
mb
20180622050147 43 251 9.0 0.0 0.00 0.00 0.13 89 1007.1
20180622044647 43 248 13.0 0.0 0.00 0.00 0.13 89 1006.8
20180622043145 43 244 13.0 0.0 0.00 0.00 0.13 89 1006.9
20180622041643 43 239 10.0 0.0 0.00 0.00 0.13 90 1006.7
20180622040141 42 248 7.0 0.0 0.00 0.00 0.13 92 1006.8
20180622034643 42 250 5.0 0.0 0.00 0.00 0.13 92 1006.7
20180622033141 42 247 6.0 0.0 0.00 0.00 0.12 91 1006.6
20180622031640 41 192 6.0 0.0 0.00 0.00 0.12 91 1006.7
20180622030139 42 256 8.0 0.0 0.00 0.00 0.12 89 1006.8
20180622024638 42 234 9.0 0.0 0.00 0.00 0.11 88 1007.0
20180622023136 42 227 8.0 0.0 0.00 0.00 0.11 89 1006.9
20180622021635 42 239 9.0 0.0 0.00 0.00 0.10 87 1006.8
20180622020134 42 186 8.0 0.0 0.00 0.00 0.09 86 1006.7
20180622014635 42 206 9.0 0.0 0.00 0.00 0.08 87 1006.8
20180622013132 42 224 7.0 0.0 0.00 0.00 0.07 89 1006.9
20180622011632 42 205 7.0 0.0 0.00 0.00 0.06 86 1006.9
20180622010127 42 246 6.0 0.0 0.00 0.00 0.06 87 1006.7
20180622004626 42 239 8.0 0.0 0.00 0.00 0.06 87 1006.5
20180622003124 42 222 7.0 0.0 0.00 0.00 0.05 89 1006.6
20180622001626 42 237 7.0 0.0 0.00 0.00 0.03 88 1006.6
20180622000119 43 219 7.0 0.0 0.00 0.00 0.03 86 1006.6
20180621234618 43 181 7.0 0.0 0.00 0.00 0.03 85 1006.7
20180621233116 42 241 5.0 0.0 0.00 0.00 0.03 88 1006.8
20180621231615 42 239 7.0 0.0 0.00 0.00 0.02 88 1006.8
20180621230112 42 227 6.0 0.0 0.00 0.00 0.02 87 1006.5
20180621224614 42 217 5.0 0.0 0.00 0.00 0.02 88 1006.4
20180621223112 42 229 4.0 0.0 0.00 0.00 0.01 86 1006.5
20180621221607 42 244 4.0 0.0 0.00 0.00 0.00 88 1006.5
20180621220106 42 241 6.0 0.0 0.00 0.00 0.00 88 1006.4
20180621214604 43 206 7.0 0.0 0.00 0.00 0.13 83 1006.1
20180621213101 43 233 9.0 0.0 0.00 0.00 0.13 82 1006.0
20180621211600 43 250 5.0 0.0 0.00 0.00 0.13 83 1006.0
20180621210100 43 220 7.0 0.0 0.00 0.00 0.13 82 1006.0
20180621204601 43 236 7.0 0.0 0.00 0.00 0.13 82 1005.8
20180621203101 43 229 5.0 0.0 0.00 0.00 0.13 83 1005.7
20180621201556 43 184 6.0 0.0 0.00 0.00 0.13 83 1005.5
20180621200058 43 232 7.0 0.0 0.00 0.00 0.13 83 1005.4
20180621194554 43 243 7.0 0.0 0.00 0.00 0.13 82 1005.2
20180621193054 42 213 7.0 0.0 0.00 0.00 0.13 83 1004.9
20180621191553 42 229 4.0 0.0 0.00 0.00 0.13 86 1004.8
20180621190055 42 315 4.0 0.0 0.00 0.00 0.13 87 1004.6
20180621184552 43 216 7.0 0.0 0.00 0.00 0.13 82 1004.4
20180621183053 43 250 7.0 0.0 0.00 0.00 0.13 83 1004.3
20180621181552 42 217 5.0 0.0 0.00 0.00 0.12 87 1004.3
20180621180050 42 271 7.0 0.0 0.00 0.00 0.11 86 1004.3
20180621174551 44 186 6.0 0.0 0.00 0.00 0.10 82 1003.9
20180621173051 44 217 8.0 0.0 0.00 0.00 0.10 82 1003.8
20180621171549 44 222 8.0 0.0 0.00 0.00 0.10 83 1003.6
20180621170051 44 230 9.0 0.0 0.00 0.00 0.09 83 1003.4
20180621164549 43 237 6.0 0.0 0.00 0.00 0.09 83 1003.3
20180621163048 43 254 6.0 0.0 0.00 0.00 0.08 83 1003.3
20180621161546 43 244 8.0 0.0 0.00 0.00 0.06 85 1003.0
20180621160044 43 176 8.0 0.0 0.00 0.00 0.06 84 1002.9
20180621154545 44 205 6.0 0.0 0.00 0.00 0.05 83 1002.8
20180621153044 44 220 6.0 0.0 0.00 0.00 0.05 83 1002.5
20180621151547 44 246 7.0 0.0 0.00 0.00 0.04 86 1002.5
20180621150042 44 280 10.0 0.0 0.00 0.00 0.03 80 1002.3
20180621144542 45 230 9.0 0.0 0.00 0.00 0.03 78 1002.1
20180621143042 46 227 9.0 0.0 0.00 0.00 0.02 75 1001.8
20180621141541 45 243 9.0 0.0 0.00 0.00 0.02 79 1001.8
20180621140038 44 250 7.0 0.0 0.00 0.00 0.02 85 1001.9
20180621134537 45 267 8.0 0.0 0.00 0.00 0.02 81 1001.7
20180621133037 46 233 5.0 0.0 0.00 0.00 0.02 75 1001.5
20180621131535 45 251 5.0 0.0 0.00 0.00 0.02 80 1001.4
20180621130039 45 244 4.0 0.0 0.00 0.00 0.02 84 1001.3
20180621124535 44 244 1.0 0.0 0.00 0.00 0.02 82 1001.3
20180621123036 44 263 5.0 0.0 0.00 0.00 0.00 80 1001.2
20180621121537 45 240 7.0 0.0 0.00 0.00 0.00 75 1001.0
20180621120031 45 247 4.0 0.0 0.00 0.00 0.00 76 1000.8
20180621114532 45 233 4.0 0.0 0.00 0.00 0.00 75 1000.7
20180621113033 45 232 5.0 0.0 0.00 0.00 0.00 76 1000.7
20180621111530 45 258 4.0 0.0 0.00 0.00 0.00 75 1000.6
20180621110034 45 278 5.0 0.0 0.00 0.00 0.00 74 1000.7
20180621104529 45 226 6.0 0.0 0.00 0.00 0.00 72 1000.5
20180621103028 46 268 5.0 0.0 0.00 0.00 0.00 72 1000.3
20180621101529 46 277 4.0 0.0 0.00 0.00 0.00 75 1000.3
20180621100029 46 254 6.0 0.0 0.00 0.00 0.00 72 1000.1
20180621094527 46 219 5.0 0.0 0.00 0.00 0.00 74 1000.1
20180621093028 45 230 7.0 0.0 0.00 0.00 0.00 77 1000.1
20180621091526 45 233 3.0 0.0 0.00 0.00 0.00 73 1000.0
20180621090025 45 247 6.0 0.0 0.00 0.00 0.00 78 999.9
20180621084524 45 195 3.0 0.0 0.00 0.00 0.00 76 999.9
20180621083023 44 27 2.0 0.0 0.00 0.00 0.00 80 999.9
20180621081523 45 260 0.0 0.0 0.00 0.00 0.00 72 999.7
20180621080024 45 282 1.0 0.0 0.00 0.00 0.00 73 999.5
20180621074523 45 0 1.0 0.0 0.00 0.00 0.00 74 999.6
20180621073020 45 10 0.0 0.0 0.00 0.00 0.00 73 999.6
20180621071519 44 23 0.0 0.0 0.00 0.00 0.00 74 999.6
20180621070019 43 23 0.0 0.0 0.00 0.00 0.00 77 999.7
20180621064514 43 23 0.0 0.0 0.00 0.00 0.00 78 999.7
20180621063017 43 14 1.0 0.0 0.00 0.00 0.00 79 999.7
20180621061513 43 89 1.0 0.0 0.00 0.00 0.00 80 999.7
20180621060014 42 131 0.0 0.0 0.00 0.00 0.00 81 999.5
20180621054510 42 62 1.0 0.0 0.00 0.00 0.00 83 999.5
20180621053009 42 21 2.0 0.0 0.00 0.00 0.00 83 999.6
20180621051508 42 121 0.0 0.0 0.00 0.00 0.00 83 999.7